Regional Weather Roundup
Issued by NWS

Home | Current Version | Previous Version | Graphics & Text | Print | Product List | Glossary On
Versions: 1 2 3 4 5 6 7 8 9 10 11 12 13 14 15 16 17 18 19 20 21 22 23 24 25 26 27 28 29 30 31 32 33 34 35 36 37 38 39 40 41 42 43 44 45 46 47 48 49 50
363
ASUS45 KCYS 190510
RWRWY

WYOMING REGIONAL WEATHER ROUNDUP
NATIONAL WEATHER SERVICE CHEYENNE WY
1100 PM MDT FRI AUG 18 2017

NOTE:  "FAIR" INDICATES FEW OR NO CLOUDS BELOW 12,000 FEET
WITH NO SIGNIFICANT WEATHER AND/OR OBSTRUCTIONS TO VISIBILITY.

WYZ001-190600-
YELLOWSTONE NATIONAL PARK

CITY           SKY/WX    TMP DP  RH WIND       PRES   REMARKS
LK YELLOWSTONE   N/A     46  37  71 CALM      30.32F
W YELLOWSTONE  NOT AVBL

$$
WYZ002>013-054>058-071-098>099-190600-
NORTHERN WYOMING

CITY           SKY/WX    TMP DP  RH WIND       PRES   REMARKS
JACKSON        FAIR      50  32  50 N6        30.23S
CODY           FAIR      74  36  25 SW6       30.06S
GREYBULL       FAIR      71  40  32 S5        29.95S
WORLAND        FAIR      70  31  23 SW9       29.96S
SHERIDAN       FAIR      57  46  66 CALM      29.97S
BUFFALO        FAIR      68  35  29 W9        30.05F
GILLETTE       FAIR      65  38  36 S6        30.00F
HULETT         FAIR      61  41  48 SW8       30.00S
NEWCASTLE      FAIR      70  36  28 E12       30.03S

$$
WYZ014>020-022>026-101>103-190600-
CENTRAL WYOMING

CITY           SKY/WX    TMP DP  RH WIND       PRES   REMARKS
BIG PINEY      FAIR      50  32  50 NW9       30.27S
PINEDALE       FAIR      52  32  46 W6        30.28R
DUBOIS         FAIR      55  30  38 MISG      30.25S
LANDER           N/A    N/A N/A N/A MISG      30.09R
RIVERTON       FAIR      71  28  20 W14       30.08F
CASPER         FAIR      57  41  55 CALM      30.08F
DOUGLAS        FAIR      62  45  53 W5        30.07F

$$
WYZ021-027>030-104>119-190600-
SOUTHERN WYOMING

CITY           SKY/WX    TMP DP  RH WIND       PRES   REMARKS
EVANSTON       FAIR      61  29  29 SW6       30.29F
KEMMERER         N/A     59  30  33 CALM      30.30S
FORT BRIDGER   FAIR      64  27  25 SW9       30.31S
ROCK SPRINGS   FAIR      64  28  25 SW8       30.25S
RAWLINS        FAIR      63  32  31 W5        30.23S
SARATOGA       FAIR      55  37  50 SE6       30.25F
LARAMIE        FAIR      54  43  66 S8        30.26F
CHEYENNE       FAIR      61  45  55 SW6       30.19F
TORRINGTON     FAIR      63  47  55 E8        30.03F
PINE BLUFFS    FAIR      61  48  63 S8        30.14F

$$




USA.gov is the U.S. government's official web portal to all federal, state and local government web resources and services.